Regional Weather Roundup
Issued by NWS

Home | Current Version | Previous Version | Graphics & Text | Print | Product List | Glossary On
Versions: 1 2 3 4 5 6 7 8 9 10 11 12 13 14 15 16 17 18 19 20 21 22 23 24 25 26 27 28 29 30 31 32 33 34 35 36 37 38 39 40 41 42 43 44 45 46 47 48 49 50
000
ASUS43 KMKX 272011
RWRWI

WISCONSIN REGIONAL WEATHER ROUNDUP
NATIONAL WEATHER SERVICE MILWAUKEE/SULLIVAN WI
300 PM CDT FRI MAY 27 2016

NOTE: "FAIR" INDICATES FEW OR NO CLOUDS BELOW 12,000 FEET WITH NO
SIGNIFICANT WEATHER AND/OR OBSTRUCTIONS TO VISIBILITY.

WIZ001-002-006>008-014>016-023>028-272100-
NORTHWEST WISCONSIN

CITY           SKY/WX    TMP DP  RH WIND       PRES   REMARKS
SUPERIOR ARPT  LGT RAIN  47  46  98 NE7       29.88F
ASHLAND        CLOUDY    53  49  86 N9        29.88F
HAYWARD        CLOUDY    65  56  72 N6        29.84F
SIREN          DRIZZLE   65  61  87 NE5       29.82F
CUMBERLAND     RAIN      63  59  88 NE7       29.82R
RICE LAKE      RAIN      66  60  79 NE6       29.83R
CHETEK         RAIN      65  62  91 E7        29.80F
LADYSMITH      RAIN      67  60  80 E5        29.85R
EAU CLAIRE     CLOUDY    67  65  93 NE6       29.77F
MENOMONIE      RAIN      66  65  97 E5        29.78F
NEW RICHMOND   LGT RAIN  65  63  93 NE5       29.80S
OSCEOLA        RAIN      65  65 100 NW5       29.83R
$$

WIZ003>005-009-010-017-018-272100-
NORTH CENTRAL WISCONSIN

CITY           SKY/WX    TMP DP  RH WIND       PRES   REMARKS
MANITOWISH WTR NOT AVBL
ARBOR VITAE    CLOUDY    72  61  68 E6        29.86F
WOODRUFF       CLOUDY    72  61  68 E6        29.86F
RHINELANDER    CLOUDY    73  60  63 SE12      29.87F
EAGLE RIVER      N/A     72  58  61 E8        29.88S
LAND O LAKES   CLOUDY    73  59  61 E8        29.90F
PHILLIPS       DRIZZLE   68  61  79 NE3       29.83F
TOMAHAWK       CLOUDY    71  59  65 SE10G18   29.85F
MEDFORD        LGT RAIN  68  62  79 SE7       29.82F
MERRILL        CLOUDY    72  63  73 SE12      29.85F
$$

WIZ029-030-035-036-043>047-272100-
CENTRAL WISCONSIN

CITY           SKY/WX    TMP DP  RH WIND       PRES   REMARKS
WAUSAU         CLOUDY    74  58  57 E18G29    29.82S
MOSINEE        PTSUNNY   72  63  73 SE12G17   29.85S
MARSHFIELD     CLOUDY    75  62  64 SE13      29.80F
STEVENS POINT  CLOUDY    70  63  78 SE10      29.84S
WAUPACA        RAIN      74  69  85 NE6       29.84F
WAUTOMA        LGT RAIN  74  66  76 E6        29.83F
WISC RAPIDS    CLOUDY    74  61  63 SE12      29.82F
CAMP DOUGLAS   PTSUNNY   75  75 100 SE5       29.79F
$$

WIZ011>013-019>022-031-037>040-048>050-272100-
NORTHEAST WISCONSIN

CITY           SKY/WX    TMP DP  RH WIND       PRES   REMARKS
ANTIGO         DRIZZLE   67  64  91 E12       29.87F
SHAWANO        CLOUDY    70  66  86 E6        29.87R
OCONTO         CLOUDY   N/A N/A N/A E7        29.87F
STURGEON BAY   NOT AVBL
GREEN BAY      CLOUDY    70  66  87 NE7       29.85F
MANITOWOC      CLOUDY    56  55  97 SE7       29.88F FOG
APPLETON       CLOUDY    72  66  83 E6        29.84F
CLINTONVILLE   CLOUDY    70  63  78 E6        29.85F
OSHKOSH        MOSUNNY   72  65  78 E8        29.83F
$$

WIZ032>034-041-042-053>061-272100-
SOUTHWEST WISCONSIN

CITY           SKY/WX    TMP DP  RH WIND       PRES   REMARKS
LA CROSSE      CLOUDY    75  63  66 SE12      29.76F
SPARTA         CLOUDY    75  64  67 S10       29.79F
VIROQUA        CLOUDY    71  64  77 S7        29.80F
BOSCOBEL       PTSUNNY   79  65  62 S9G20     29.77F HX  81
PRAIRIE DU CHI MOSUNNY   76  63  63 SE10G17   29.75F
PLATTEVILLE    CLOUDY    74  69  83 S12       29.79F
$$

WIZ056-057-062-063-064-067-068-272100-
SOUTH CENTRAL WISCONSIN

CITY           SKY/WX    TMP DP  RH WIND       PRES   REMARKS
REEDSBURG      RAIN      74  67  79 SE3       29.79F
BARABOO/DELLS  RAIN      74  64  70 SE5       29.80F
LONE ROCK      CLOUDY    73  68  84 SE5       29.79F
MINERAL POINT  LGT RAIN  73  68  83 SW13      29.80S
MADISON        LGT RAIN  72  65  78 SE14G31   29.79F
MIDDLETON      CLOUDY    70  65  83 SW10      29.81R
WATERTOWN      CLOUDY    78  66  68 S10       29.81F
MONROE         HVY RAIN  72  64  78 S15G29    29.82R
JANESVILLE     CLOUDY    82  63  51 S16G22    29.80F HX  83
$$

WIZ051-052-058>065-066-070>072-272100-
SOUTHEAST WISCONSIN

CITY           SKY/WX    TMP DP  RH WIND       PRES   REMARKS
MILWAUKEE      CLOUDY    75  65  70 SE16      29.85S
WAUKESHA       PTSUNNY   79  63  57 SE14      29.84F HX  80
MILWAUKEE/TIMM CLOUDY    79  63  57 SE9       29.84F HX  80
RACINE         MOSUNNY   72  62  71 SE16G23   29.87F
BURLINGTON     CLOUDY    80  62  54 S9        29.83F HX  81
KENOSHA        PTSUNNY   74  64  71 SE18      29.86S
FOND DU LAC    CLOUDY    74  68  81 NE7       29.83F
SHEBOYGAN      CLOUDY    69  64  84 SE10      29.85F HAZE
WEST BEND      RAIN      73  68  83 NE9       29.83F
JUNEAU         PTSUNNY   75  69  81 NE6       29.83F
$$

LSZ147-162-272100-
LAKE SUPERIOR

STATION/POSITION TIME  TEMP    WIND        PRES    WAVE
                       AIR SEA DIR/SP/G            HT/PER
                 (UTC) (F)     (DEG/KT/KT) (MB)    (FT/S)
W MID LAKE BUOY  1950   40 38   60/  8/ 10 1014.0R   0
DEVILS ISLAND    2000   44      80/  9/ 10 1012.6F
PORT WING        1820   42      10/ 12/ 13 1012.9
SAXON HARBOR     1900   46      20/  4/  5 1012.5
$$

LMZ867-665-643>646-272100-
LAKE MICHIGAN

STATION/POSITION TIME  TEMP    WIND        PRES    WAVE
                       AIR SEA DIR/SP/G            HT/PER
                 (UTC) (F)     (DEG/KT/KT) (MB)    (FT/S)
CHAMBERS ISLAND  1900   59      CALM  /  2 1013.2S
N MID LAKE BUOY  1950   50 47  360/  6/  8 1012.6F   0
NORTHPORT PIER   2000   53      80/  1/ 10 1012.2F
SISTER BAY       1920   63     170/  7/  9   N/A
ALGOMA LAKESHORE 1902          210/  3/  4   N/A
KEWAUNEE LAKESHO 1900   53     150/  4/  6 1012.1F
SHEBOYGAN LAKESH 2000   54     200/  3/  4 1011.6F
PORT WASHINGTON  1900   63     140/  4/  5 1012.2F
S MID LAKE BUOY  1950   57 50  130/ 10/ 10 1011.9F   1
KENOSHA   LAKESH 2000   62     160/ 11/ 14 1010.8F
$$

TC  - TEMPERATURE IN CELSIUS
VSB - VISIBILITY IN STATUTE MILES
WCI - WIND CHILL INDEX
HX  - HEAT INDEX





USA.gov is the U.S. government's official web portal to all federal, state and local government web resources and services.